Wind_Speed
37 36 36 35 34 34 31 31 30 31 31 28 27 27 26 25 25 27 28 30 32 35 37 39 40 40 41 42 41 42 44 46 47 45 48 54 54 52 51 51 50 53 55 51
39 35 34 34 33 33 32 32 31 32 31 29 28 28 27 26 26 26 27 31 34 36 38 40 40 41 43 44 44 46 48 52 53 52 53 59 59 58 60 59 58 55 59 56
37 34 34 35 32 33 33 32 33 34 34 32 31 30 28 27 27 28 31 32 35 37 40 41 44 45 46 47 47 51 54 57 59 60 59 61 60 59 61 65 68 66 64 57
37 33 33 34 33 34 34 33 34 36 35 34 32 31 31 31 32 33 36 37 40 42 43 45 46 48 49 50 53 57 61 64 65 63 64 64 64 62 62 65 65 67 62 59
36 35 36 35 33 35 34 34 35 37 37 36 34 35 35 35 37 38 39 42 44 46 47 48 49 50 52 55 58 62 66 68 68 65 66 65 68 66 68 63 64 64 58 58
37 37 37 36 35 34 35 35 35 36 37 38 38 38 39 38 39 40 43 45 47 50 52 51 51 54 57 60 64 68 70 70 68 70 64 65 72 61 59 58 57 55 53 50
37 37 34 35 32 35 35 33 32 36 38 38 38 40 40 40 41 42 45 47 50 49 50 52 55 58 62 65 66 68 69 66 64 64 59 64 52 50 50 53 48 47 53 51
36 35 34 33 32 33 33 33 33 34 36 38 39 40 40 40 42 43 45 48 49 51 53 57 60 62 65 65 64 60 59 58 60 61 59 57 45 45 48 50 41 49 49 46
36 35 33 32 32 33 34 33 32 32 35 35 38 38 38 39 41 42 44 47 50 53 57 61 63 66 69 67 66 62 56 54 56 58 58 56 47 51 52 54 44 43 43 43
35 33 32 32 33 33 33 32 30 31 31 34 36 36 36 38 39 41 43 46 50 54 55 56 58 59 57 55 53 48 44 46 48 48 49 57 51 46 43 51 47 52 47 39
34 34 33 33 33 33 31 30 29 30 33 33 33 33 35 36 38 38 40 42 43 45 49 54 54 55 53 53 45 40 39 42 40 42 47 51 40 44 43 42 41 43 43 42
38 36 34 33 32 30 30 30 30 31 30 31 30 32 33 33 32 36 32 36 43 47 53 53 54 51 46 40 37 31 37 38 45 43 44 38 38 38 38 41 45 45 45 45
35 35 35 34 33 32 31 32 31 30 27 28 30 29 30 28 30 27 30 36 42 42 37 35 36 29 27 28 25 21 20 27 36 39 29 37 39 41 42 43 46 49 51 51
36 35 36 35 34 33 31 32 31 30 26 26 26 28 26 21 21 26 31 30 21 21 26 31 33 35 31 19 26 25 23 31 38 41 37 43 36 38 39 40 44 45 45 45
36 37 35 34 33 32 32 31 32 33 28 18 22 27 19 16 20 24 15 12 17 26 29 33 34 37 40 35 32 19 32 44 51 55 47 52 44 48 47 49 49 48 45 43
32 35 34 35 33 32 31 28 31 32 27 18 21 22 11 11 17 6 12 14 21 27 31 33 35 38 43 39 31 27 34 44 51 56 53 50 48 43 43 43 42 45 48 43
32 32 34 33 32 30 29 28 30 29 24 17 22 19 9 11 10 8 12 16 23 25 25 27 28 31 35 34 40 41 45 46 45 45 48 50 49 45 46 45 44 39 36 46
32 33 33 33 31 29 28 30 29 28 25 19 23 19 10 12 13 11 13 17 21 27 32 36 33 31 29 33 40 44 44 46 46 40 41 49 45 40 34 34 34 42 38 38
33 34 33 31 29 28 32 28 30 29 26 19 26 19 13 15 16 14 12 18 26 29 31 32 32 30 31 31 37 43 46 48 44 31 39 49 40 28 20 16 21 25 23 20
35 35 33 30 30 30 31 30 31 29 27 20 24 25 16 16 20 18 19 22 27 28 30 31 30 28 29 29 35 41 44 46 35 32 32 39 33 26 10 5 6 4 16 21
38 35 33 33 33 32 33 32 29 29 26 23 26 28 24 18 17 15 18 24 26 30 30 29 31 28 26 29 30 35 40 45 36 33 38 32 32 24 19 17 15 17 24 26
38 36 36 36 35 35 34 31 29 29 26 24 26 28 28 24 21 17 17 22 26 28 28 27 24 27 30 29 27 28 34 38 41 34 37 41 37 33 31 32 35 33 35 34
39 38 38 37 37 37 32 27 28 28 27 26 28 31 31 29 28 26 23 23 29 27 27 24 23 25 26 28 28 28 28 31 34 35 35 37 37 39 40 40 39 29 28 26
41 40 40 40 38 32 27 31 29 26 26 25 28 32 32 32 31 32 31 30 30 29 26 24 25 26 24 25 24 24 24 25 25 25 28 28 30 33 33 29 25 21 16 14
42 42 42 39 33 30 29 28 27 27 25 24 25 27 30 32 34 34 34 31 29 28 25 23 23 24 24 23 23 22 21 21 21 19 18 20 20 21 22 22 23 24 21 19
45 45 42 34 30 29 28 27 27 26 24 23 24 23 23 26 27 26 25 24 23 22 21 20 19 19 20 21 22 21 20 19 16 17 15 12 10 11 12 12 12 12 12 12
48 42 36 33 31 28 27 26 25 24 23 23 22 20 21 18 18 18 18 18 17 15 12 10 9 10 13 15 17 19 18 18 17 15 14 12 10 9 6 3 4 5 6 7
Wind_Direction
217 217 220 223 226 233 236 238 235 232 230 233 240 246 251 256 267 273 279 283 285 287 289 290 289 287 285 285 284 284 287 290 291 291 290 287 286 285 282 277 276 277 277 278
221 219 223 230 233 235 235 236 234 235 233 235 241 247 252 261 271 281 290 290 290 291 291 291 289 285 281 281 282 284 287 288 289 288 287 286 285 285 284 284 282 276 270 276
224 224 227 233 233 235 237 236 236 237 232 236 241 247 256 265 275 285 290 294 297 294 292 290 288 286 285 284 285 285 287 287 288 288 286 283 283 284 285 287 284 281 280 277
227 229 230 231 233 237 237 235 236 237 233 237 244 250 257 267 275 281 287 294 298 297 295 292 290 289 287 288 289 289 288 287 287 287 288 286 285 286 283 275 276 278 285 277
228 227 228 230 232 237 238 240 240 238 237 242 246 252 259 265 274 281 287 292 296 298 294 292 291 290 290 289 289 289 289 289 288 287 288 287 286 287 281 281 277 272 271 271
224 226 228 231 232 239 241 241 242 243 242 245 250 256 261 269 277 282 285 290 295 297 296 295 294 292 292 292 291 290 290 291 291 289 290 287 287 292 280 271 269 274 280 281
224 226 228 232 237 242 244 244 245 244 244 247 253 258 264 269 275 282 287 290 294 294 293 293 293 294 293 292 292 292 292 292 291 291 285 284 293 282 274 271 272 277 277 279
227 230 233 237 242 245 246 246 245 247 250 252 255 261 266 271 278 283 286 290 291 292 295 296 295 295 293 292 291 292 291 288 286 285 284 284 285 277 277 276 277 281 284 286
230 232 236 239 242 244 246 246 247 248 253 255 259 264 268 274 279 283 288 291 295 298 299 299 299 297 295 295 294 293 290 287 284 284 283 282 282 281 283 280 271 285 278 275
231 233 236 240 242 243 244 245 247 252 256 259 263 266 271 275 281 287 294 299 300 301 303 303 302 303 304 303 301 299 295 288 287 286 286 282 278 281 284 282 279 278 277 271
232 234 235 235 238 241 241 243 247 252 256 259 264 268 273 281 286 295 299 299 304 307 309 310 312 312 310 307 302 299 297 295 292 284 281 284 290 280 277 278 276 272 272 271
230 233 235 234 236 239 244 245 246 251 257 260 265 270 277 282 293 297 301 309 312 316 317 317 318 317 320 312 309 298 303 301 295 295 292 291 284 286 279 273 269 267 269 266
232 232 233 235 236 236 240 244 244 250 259 262 265 272 277 291 295 298 317 318 319 321 330 335 333 340 336 334 340 324 314 305 293 288 287 285 283 277 279 278 276 275 274 270
229 231 232 232 234 235 238 241 246 250 258 259 266 271 284 294 296 311 319 318 330 334 333 337 335 333 330 332 328 323 305 295 302 292 303 298 292 289 285 280 279 279 279 279
230 231 234 234 235 237 240 244 248 252 255 257 264 271 284 296 316 323 330 329 330 333 327 326 327 324 318 330 333 340 299 300 298 300 299 294 294 292 289 287 285 283 282 283
232 231 234 235 235 238 243 247 247 248 249 246 258 272 275 301 323 330 314 318 318 320 322 321 325 322 318 324 329 325 313 310 308 302 299 291 287 278 273 275 276 275 279 283
235 234 235 236 236 239 243 243 244 245 245 243 242 252 263 296 293 286 310 325 335 341 341 331 329 325 327 343 346 345 337 326 320 315 312 300 297 288 278 263 250 256 257 270
236 233 235 236 237 239 241 241 241 241 243 239 222 240 243 266 257 280 320 332 326 329 327 335 336 333 335 351 353 350 347 348 340 328 314 308 309 302 285 274 262 244 243 263
237 235 234 236 236 235 238 235 236 238 241 239 215 232 244 254 249 272 301 306 304 312 321 330 331 329 334 354 353 357 357 356 350 345 324 328 337 311 288 275 249 224 254 244
238 235 233 233 235 235 236 232 234 238 242 238 220 225 234 246 251 264 279 292 299 313 323 330 330 328 329 352 358 352 356 0 7 17 357 350 7 7 352 154 137 193 226 189
235 232 231 231 233 234 232 231 233 237 241 238 230 227 234 240 253 268 280 292 293 306 319 323 324 328 332 343 354 355 354 7 15 31 38 32 18 36 68 80 106 139 151 151
228 228 229 229 230 231 230 230 234 240 242 241 235 230 234 243 250 262 278 294 303 310 315 320 315 324 330 337 350 355 0 6 20 23 31 45 70 84 98 107 116 127 125 117
222 224 226 226 228 228 228 232 237 239 242 245 238 236 242 250 258 269 283 294 298 303 310 311 310 316 325 330 344 356 1 7 13 31 38 37 42 52 67 85 86 95 106 104
218 220 224 224 224 225 227 232 236 240 248 252 248 245 250 257 263 268 279 287 290 292 296 300 303 309 318 325 334 343 353 2 10 21 34 44 51 50 53 67 69 75 85 79
216 218 222 223 222 222 226 231 235 241 250 255 255 255 257 260 265 271 277 279 280 280 286 289 294 299 302 309 317 327 335 344 354 6 25 27 44 44 48 54 61 68 71 77
215 216 220 218 219 223 227 229 233 242 251 255 258 261 264 265 269 271 272 272 275 279 285 291 288 289 291 292 296 301 309 321 334 337 353 14 26 45 52 56 61 64 63 67
214 215 217 215 215 220 225 228 231 238 247 252 256 259 261 267 269 270 270 270 275 281 285 287 294 294 293 295 297 299 301 298 306 319 323 330 342 345 358 39 57 53 63 65
Height
5682 5686 5692 5698 5701 5705 5708 5713 5717 5721 5724 5728 5729 5732 5733 5736 5735 5736 5737 5736 5735 5734 5731 5729 5727 5725 5721 5719 5718 5716 5713 5710 5710 5712 5709 5699 5698 5697 5695 5691 5691 5684 5679 5686
5678 5680 5685 5690 5693 5698 5703 5706 5710 5714 5717 5720 5722 5725 5727 5729 5729 5730 5730 5729 5727 5725 5724 5721 5719 5716 5714 5712 5710 5706 5703 5698 5697 5701 5699 5688 5685 5683 5679 5677 5675 5674 5665 5671
5672 5673 5679 5684 5687 5691 5697 5701 5705 5709 5711 5714 5717 5719 5720 5722 5723 5722 5722 5721 5720 5718 5714 5712 5709 5707 5705 5703 5701 5696 5691 5688 5685 5682 5682 5674 5675 5673 5668 5661 5652 5649 5651 5655
5664 5667 5671 5677 5680 5685 5690 5694 5698 5702 5705 5707 5709 5711 5713 5715 5716 5715 5714 5714 5711 5709 5706 5703 5700 5697 5696 5693 5689 5684 5678 5673 5669 5669 5661 5657 5656 5659 5655 5643 5638 5632 5642 5636
5656 5660 5665 5671 5674 5680 5684 5687 5691 5694 5697 5700 5702 5704 5706 5707 5707 5708 5707 5704 5702 5699 5696 5694 5692 5689 5685 5683 5677 5669 5662 5655 5649 5655 5641 5636 5639 5645 5628 5629 5624 5618 5620 5620
5648 5653 5659 5663 5668 5672 5676 5680 5683 5686 5689 5692 5694 5696 5697 5698 5699 5700 5698 5696 5693 5689 5685 5683 5680 5677 5673 5666 5658 5651 5644 5635 5629 5634 5620 5616 5620 5625 5611 5605 5606 5608 5608 5610
5641 5648 5651 5656 5661 5666 5670 5672 5674 5678 5681 5684 5686 5688 5690 5691 5691 5690 5688 5686 5683 5681 5676 5673 5668 5663 5656 5651 5646 5635 5626 5619 5609 5609 5603 5599 5611 5600 5594 5589 5598 5601 5593 5595
5635 5640 5644 5649 5654 5659 5662 5664 5667 5670 5673 5675 5679 5681 5681 5682 5683 5682 5678 5675 5673 5669 5665 5660 5654 5648 5643 5637 5628 5620 5609 5602 5594 5589 5587 5586 5596 5587 5582 5581 5594 5584 5577 5581
5629 5634 5638 5642 5646 5651 5656 5659 5661 5662 5665 5667 5669 5672 5673 5673 5673 5672 5669 5665 5662 5657 5651 5643 5637 5631 5623 5616 5611 5601 5594 5587 5581 5574 5569 5568 5577 5568 5566 5565 5580 5569 5568 5568
5622 5626 5630 5635 5640 5644 5648 5652 5654 5655 5656 5658 5660 5663 5664 5666 5665 5662 5660 5655 5648 5645 5638 5632 5624 5618 5607 5599 5591 5585 5579 5573 5567 5561 5554 5551 5558 5558 5554 5554 5564 5549 5551 5552
5614 5618 5623 5627 5634 5637 5640 5644 5645 5648 5648 5651 5653 5656 5657 5656 5656 5655 5651 5645 5640 5635 5628 5620 5611 5602 5592 5584 5579 5570 5567 5559 5557 5550 5544 5542 5549 5540 5539 5538 5535 5535 5533 5534
5607 5612 5616 5620 5625 5628 5631 5636 5641 5642 5642 5644 5646 5648 5649 5650 5650 5646 5641 5636 5630 5623 5615 5606 5598 5588 5580 5572 5568 5563 5556 5552 5543 5542 5534 5536 5530 5526 5527 5522 5519 5520 5518 5518
5598 5603 5607 5612 5616 5622 5626 5630 5633 5634 5634 5637 5639 5641 5642 5643 5640 5637 5633 5627 5621 5615 5606 5599 5591 5582 5576 5569 5564 5557 5552 5546 5535 5529 5529 5522 5520 5517 5513 5511 5507 5508 5509 5506
5592 5597 5602 5605 5609 5614 5619 5622 5625 5628 5629 5630 5633 5633 5635 5633 5631 5628 5626 5621 5616 5609 5602 5595 5589 5580 5573 5568 5562 5557 5549 5538 5530 5519 5520 5512 5512 5508 5504 5500 5497 5495 5495 5494
5585 5590 5594 5599 5602 5606 5611 5614 5617 5619 5622 5625 5625 5626 5627 5625 5623 5622 5618 5614 5609 5604 5599 5594 5586 5577 5566 5563 5560 5556 5541 5531 5519 5508 5511 5499 5497 5494 5489 5485 5484 5483 5482 5484
5577 5582 5586 5592 5595 5599 5603 5606 5609 5610 5613 5620 5619 5619 5620 5619 5618 5616 5613 5610 5606 5601 5596 5589 5582 5573 5563 5555 5551 5545 5534 5521 5508 5494 5488 5478 5472 5473 5473 5470 5470 5470 5469 5471
5570 5574 5578 5583 5588 5591 5595 5599 5601 5603 5608 5612 5611 5612 5613 5613 5612 5611 5609 5606 5601 5597 5591 5584 5577 5568 5559 5552 5540 5533 5523 5509 5496 5482 5469 5459 5452 5448 5447 5448 5453 5456 5458 5459
5563 5567 5571 5576 5581 5585 5587 5590 5593 5597 5601 5605 5606 5606 5609 5609 5608 5607 5605 5601 5596 5592 5586 5581 5574 5566 5557 5548 5538 5528 5515 5502 5489 5475 5460 5442 5435 5431 5429 5429 5431 5439 5444 5451
5555 5560 5564 5568 5573 5577 5578 5584 5586 5589 5595 5598 5600 5600 5602 5602 5602 5601 5599 5596 5592 5587 5583 5578 5571 5563 5555 5546 5537 5526 5513 5499 5483 5471 5454 5437 5421 5412 5413 5416 5421 5427 5438 5446
5548 5553 5557 5562 5565 5568 5572 5577 5579 5582 5586 5590 5593 5594 5596 5597 5596 5595 5594 5590 5587 5584 5580 5574 5569 5562 5555 5545 5536 5527 5515 5501 5487 5475 5460 5438 5421 5413 5411 5414 5422 5430 5436 5442
5541 5545 5550 5554 5557 5561 5565 5568 5573 5576 5580 5582 5584 5587 5589 5591 5590 5589 5587 5584 5581 5578 5576 5571 5565 5560 5554 5545 5537 5529 5519 5507 5492 5479 5464 5446 5432 5423 5421 5424 5428 5433 5438 5443
5533 5538 5541 5545 5550 5553 5557 5562 5567 5570 5572 5575 5577 5580 5583 5583 5583 5583 5582 5579 5577 5574 5570 5567 5562 5557 5551 5544 5537 5531 5523 5515 5502 5490 5479 5467 5456 5446 5441 5439 5441 5444 5448 5453
5523 5528 5533 5537 5540 5545 5552 5558 5561 5562 5564 5567 5570 5573 5575 5575 5576 5576 5575 5574 5572 5569 5566 5563 5559 5554 5550 5543 5537 5531 5525 5519 5512 5503 5492 5483 5477 5472 5467 5465 5464 5463 5466 5468
5514 5519 5523 5527 5533 5541 5548 5548 5552 5555 5557 5560 5563 5565 5567 5567 5568 5568 5568 5568 5566 5563 5561 5559 5555 5551 5547 5542 5537 5532 5527 5523 5517 5513 5505 5498 5492 5487 5483 5481 5481 5480 5479 5480
5505 5509 5513 5521 5530 5535 5538 5542 5545 5547 5551 5553 5554 5557 5558 5559 5560 5560 5560 5559 5557 5556 5555 5553 5551 5548 5544 5539 5535 5531 5527 5524 5520 5515 5511 5507 5503 5498 5496 5493 5491 5490 5491 5491
5495 5499 5506 5518 5524 5528 5532 5534 5538 5541 5544 5546 5548 5549 5550 5551 5551 5552 5551 5551 5550 5549 5548 5547 5544 5542 5539 5536 5532 5529 5526 5523 5519 5517 5513 5511 5507 5505 5504 5501 5500 5499 5498 5498
5484 5494 5504 5510 5516 5521 5524 5527 5531 5535 5537 5539 5541 5543 5543 5545 5544 5545 5544 5544 5544 5543 5542 5541 5539 5537 5535 5531 5528 5525 5522 5520 5517 5514 5512 5509 5508 5506 5505 5504 5502 5502 5501 5501